| time (UTC) | temp F | wind direction | speed knots | gust knots | rain 1hr in | rain 24hr in | rain mn in | humidity % | barometer mb |
| 20260506203542 | 54 | 40 | 2.6 | 7.0 | 0.00 | 0.00 | 0.00 | 67 | 1012.8 |
| 20260506203031 | 54 | 360 | 2.6 | 8.7 | 0.00 | 0.00 | 0.00 | 67 | 1012.8 |
| 20260506202540 | 54 | 15 | 2.6 | 8.7 | 0.00 | 0.00 | 0.00 | 67 | 1012.7 |
| 20260506202027 | 54 | 335 | 2.6 | 8.7 | 0.00 | 0.00 | 0.00 | 67 | 1012.6 |
| 20260506201536 | 54 | 341 | 2.6 | 7.8 | 0.00 | 0.00 | 0.00 | 67 | 1012.6 |
| 20260506201040 | 55 | 341 | 2.6 | 7.8 | 0.00 | 0.00 | 0.00 | 69 | 1012.6 |
| 20260506200529 | 55 | 34 | 1.7 | 5.2 | 0.00 | 0.00 | 0.00 | 70 | 1012.5 |
| 20260506200028 | 55 | 9 | 2.6 | 5.2 | 0.00 | 0.00 | 0.00 | 70 | 1012.5 |
| 20260506195536 | 55 | 17 | 1.7 | 7.0 | 0.00 | 0.00 | 0.00 | 70 | 1012.4 |
| 20260506195025 | 55 | 355 | 1.7 | 7.0 | 0.00 | 0.00 | 0.00 | 70 | 1012.3 |
| 20260506194549 | 55 | 344 | 2.6 | 7.0 | 0.00 | 0.00 | 0.00 | 72 | 1012.2 |
| 20260506194037 | 55 | 17 | 2.6 | 7.0 | 0.00 | 0.00 | 0.00 | 73 | 1012.2 |
| 20260506193527 | 55 | 32 | 1.7 | 7.0 | 0.00 | 0.00 | 0.00 | 73 | 1012.2 |
| 20260506193036 | 55 | 355 | 3.5 | 7.8 | 0.00 | 0.00 | 0.00 | 72 | 1012.2 |
| 20260506192525 | 55 | 350 | 3.5 | 7.8 | 0.00 | 0.00 | 0.00 | 73 | 1012.1 |
| 20260506192027 | 55 | 346 | 4.3 | 8.7 | 0.00 | 0.00 | 0.00 | 72 | 1012.0 |
| 20260506191536 | 55 | 346 | 4.3 | 8.7 | 0.00 | 0.00 | 0.00 | 72 | 1011.9 |
| 20260506191024 | 55 | 17 | 1.7 | 9.6 | 0.00 | 0.00 | 0.00 | 73 | 1011.9 |
| 20260506190533 | 55 | 298 | 3.5 | 9.6 | 0.00 | 0.00 | 0.00 | 73 | 1011.9 |
| 20260506190030 | 55 | 336 | 4.3 | 11.3 | 0.00 | 0.00 | 0.00 | 73 | 1011.8 |
| 20260506185540 | 55 | 355 | 3.5 | 11.3 | 0.00 | 0.00 | 0.00 | 73 | 1011.7 |
| 20260506185028 | 55 | 15 | 4.3 | 9.6 | 0.00 | 0.00 | 0.00 | 73 | 1011.6 |
| 20260506184558 | 55 | 19 | 3.5 | 9.6 | 0.00 | 0.00 | 0.00 | 73 | 1011.6 |
| 20260506184044 | 55 | 5 | 3.5 | 11.3 | 0.00 | 0.00 | 0.00 | 73 | 1011.5 |
| 20260506183548 | 55 | 25 | 4.3 | 11.3 | 0.00 | 0.00 | 0.00 | 74 | 1011.5 |
| 20260506183035 | 55 | 28 | 2.6 | 10.4 | 0.00 | 0.00 | 0.00 | 74 | 1011.4 |
| 20260506182524 | 55 | 23 | 3.5 | 12.2 | 0.00 | 0.00 | 0.00 | 74 | 1011.3 |
| 20260506182032 | 55 | 9 | 7.0 | 12.2 | 0.00 | 0.00 | 0.00 | 74 | 1011.2 |
| 20260506181538 | 55 | 355 | 6.1 | 10.4 | 0.00 | 0.00 | 0.00 | 74 | 1011.2 |
| 20260506181025 | 55 | 11 | 3.5 | 9.6 | 0.00 | 0.00 | 0.00 | 75 | 1011.1 |
| 20260506180535 | 55 | 351 | 5.2 | 10.4 | 0.00 | 0.00 | 0.00 | 75 | 1011.1 |
| 20260506180036 | 55 | 5 | 5.2 | 11.3 | 0.00 | 0.00 | 0.00 | 74 | 1011.1 |
| 20260506175525 | 55 | 13 | 4.3 | 11.3 | 0.00 | 0.00 | 0.00 | 74 | 1011.1 |
| 20260506175029 | 55 | 9 | 6.1 | 11.3 | 0.00 | 0.00 | 0.00 | 74 | 1011.0 |
| 20260506174538 | 55 | 9 | 6.1 | 13.0 | 0.00 | 0.00 | 0.00 | 74 | 1010.9 |
| 20260506174026 | 55 | 15 | 6.1 | 13.0 | 0.00 | 0.00 | 0.00 | 74 | 1010.8 |
| 20260506173535 | 55 | 344 | 6.1 | 12.2 | 0.00 | 0.00 | 0.00 | 75 | 1010.8 |
| 20260506173058 | 55 | 29 | 5.2 | 13.0 | 0.00 | 0.00 | 0.00 | 75 | 1010.8 |
| 20260506172527 | 55 | 16 | 5.2 | 14.8 | 0.00 | 0.00 | 0.00 | 75 | 1010.7 |
| 20260506172037 | 55 | 328 | 6.1 | 14.8 | 0.00 | 0.00 | 0.00 | 74 | 1010.7 |
| 20260506171525 | 55 | 317 | 4.3 | 12.2 | 0.00 | 0.00 | 0.00 | 75 | 1010.6 |
| 20260506171054 | 55 | 342 | 7.0 | 12.2 | 0.00 | 0.00 | 0.00 | 75 | 1010.6 |
| 20260506170538 | 55 | 333 | 7.8 | 11.3 | 0.00 | 0.00 | 0.00 | 75 | 1010.6 |
| 20260506170058 | 55 | 355 | 5.2 | 13.0 | 0.00 | 0.00 | 0.00 | 75 | 1010.5 |
| 20260506165545 | 55 | 9 | 7.0 | 13.0 | 0.00 | 0.00 | 0.00 | 75 | 1010.5 |
| 20260506165031 | 55 | 347 | 7.0 | 12.2 | 0.00 | 0.00 | 0.00 | 75 | 1010.5 |
| 20260506164534 | 55 | 5 | 5.2 | 13.0 | 0.00 | 0.00 | 0.00 | 75 | 1010.6 |
| 20260506164023 | 55 | 5 | 5.2 | 13.9 | 0.00 | 0.00 | 0.00 | 75 | 1010.5 |
| 20260506163552 | 55 | 360 | 7.8 | 13.9 | 0.00 | 0.00 | 0.00 | 75 | 1010.5 |
| 20260506163038 | 55 | 355 | 7.0 | 11.3 | 0.00 | 0.00 | 0.00 | 75 | 1010.5 |
| 20260506162527 | 55 | 24 | 6.1 | 13.0 | 0.00 | 0.00 | 0.00 | 75 | 1010.4 |
| 20260506162028 | 55 | 355 | 7.0 | 13.0 | 0.00 | 0.00 | 0.00 | 75 | 1010.5 |
| 20260506161537 | 55 | 331 | 6.1 | 12.2 | 0.00 | 0.00 | 0.00 | 75 | 1010.4 |
| 20260506161026 | 56 | 360 | 5.2 | 13.0 | 0.00 | 0.00 | 0.00 | 74 | 1010.4 |
| 20260506160536 | 56 | 338 | 5.2 | 13.0 | 0.00 | 0.00 | 0.00 | 73 | 1010.5 |
| 20260506160034 | 56 | 54 | 5.2 | 11.3 | 0.00 | 0.00 | 0.00 | 73 | 1010.4 |
| 20260506155542 | 56 | 346 | 6.1 | 14.8 | 0.00 | 0.00 | 0.00 | 73 | 1010.3 |
| 20260506155049 | 56 | 355 | 8.7 | 16.5 | 0.00 | 0.00 | 0.00 | 72 | 1010.4 |
| 20260506154537 | 56 | 22 | 4.3 | 16.5 | 0.00 | 0.00 | 0.00 | 72 | 1010.4 |
| 20260506154022 | 56 | 34 | 6.1 | 15.6 | 0.00 | 0.00 | 0.00 | 72 | 1010.4 |
| 20260506153546 | 56 | 29 | 7.8 | 17.4 | 0.00 | 0.00 | 0.00 | 72 | 1010.4 |
| 20260506153034 | 56 | 339 | 9.6 | 17.4 | 0.00 | 0.00 | 0.00 | 71 | 1010.4 |
| 20260506152522 | 57 | 12 | 10.4 | 17.4 | 0.00 | 0.00 | 0.00 | 70 | 1010.3 |
| 20260506152030 | 57 | 355 | 7.8 | 17.4 | 0.00 | 0.00 | 0.00 | 71 | 1010.3 |
| 20260506151534 | 57 | 5 | 8.7 | 18.2 | 0.00 | 0.00 | 0.00 | 71 | 1010.3 |
| 20260506151022 | 56 | 33 | 9.6 | 18.2 | 0.00 | 0.00 | 0.00 | 70 | 1010.3 |
| 20260506150532 | 57 | 360 | 6.1 | 19.1 | 0.00 | 0.00 | 0.00 | 70 | 1010.3 |
| 20260506150054 | 57 | 5 | 10.4 | 19.1 | 0.00 | 0.00 | 0.00 | 70 | 1010.2 |
| 20260506145540 | 58 | 11 | 10.4 | 17.4 | 0.00 | 0.00 | 0.00 | 68 | 1010.2 |
| 20260506145025 | 57 | 19 | 8.7 | 13.9 | 0.00 | 0.00 | 0.00 | 70 | 1010.1 |
| 20260506144534 | 57 | 303 | 7.0 | 15.6 | 0.00 | 0.00 | 0.00 | 70 | 1010.2 |
| 20260506144024 | 58 | 324 | 7.8 | 15.6 | 0.00 | 0.00 | 0.00 | 68 | 1010.2 |
| 20260506143559 | 58 | 329 | 7.8 | 16.5 | 0.00 | 0.00 | 0.00 | 68 | 1010.2 |
| 20260506143027 | 57 | 13 | 10.4 | 16.5 | 0.00 | 0.00 | 0.00 | 70 | 1010.2 |
| 20260506142532 | 58 | 12 | 7.0 | 14.8 | 0.00 | 0.00 | 0.00 | 69 | 1010.3 |
| 20260506142039 | 59 | 337 | 6.1 | 15.6 | 0.00 | 0.00 | 0.00 | 68 | 1010.3 |
| 20260506141526 | 60 | 340 | 8.7 | 15.6 | 0.00 | 0.00 | 0.00 | 69 | 1010.3 |
| 20260506141029 | 59 | 342 | 7.0 | 14.8 | 0.00 | 0.00 | 0.00 | 70 | 1010.1 |
| 20260506140534 | 59 | 15 | 7.8 | 16.5 | 0.00 | 0.00 | 0.00 | 71 | 1010.3 |
| 20260506140057 | 58 | 350 | 9.6 | 16.5 | 0.00 | 0.00 | 0.00 | 71 | 1010.3 |
| 20260506135525 | 59 | 25 | 8.7 | 16.5 | 0.00 | 0.00 | 0.00 | 71 | 1010.2 |
| 20260506135034 | 59 | 355 | 10.4 | 18.2 | 0.00 | 0.00 | 0.00 | 71 | 1010.3 |
| 20260506134543 | 59 | 11 | 8.7 | 18.2 | 0.00 | 0.00 | 0.00 | 71 | 1010.2 |
| 20260506134026 | 59 | 348 | 8.7 | 14.8 | 0.00 | 0.00 | 0.00 | 71 | 1010.2 |
| 20260506133535 | 59 | 21 | 7.8 | 13.9 | 0.00 | 0.00 | 0.00 | 72 | 1010.2 |
| 20260506133022 | 58 | 332 | 5.2 | 15.6 | 0.00 | 0.00 | 0.00 | 73 | 1010.2 |
| 20260506132531 | 57 | 14 | 10.4 | 15.6 | 0.00 | 0.00 | 0.00 | 75 | 1010.2 |
| 20260506132059 | 56 | 45 | 7.0 | 14.8 | 0.00 | 0.00 | 0.00 | 75 | 1010.2 |
| 20260506131528 | 56 | 346 | 8.7 | 14.8 | 0.00 | 0.00 | 0.00 | 74 | 1010.2 |
| 20260506131101 | 57 | 360 | 7.0 | 13.0 | 0.00 | 0.00 | 0.00 | 73 | 1010.1 |
| 20260506130530 | 58 | 296 | 6.1 | 13.9 | 0.00 | 0.00 | 0.00 | 73 | 1010.2 |
| 20260506130032 | 58 | 302 | 7.0 | 16.5 | 0.00 | 0.00 | 0.00 | 73 | 1010.1 |
| 20260506125538 | 58 | 22 | 7.8 | 16.5 | 0.00 | 0.00 | 0.00 | 73 | 1010.0 |
| 20260506125027 | 58 | 346 | 7.0 | 15.6 | 0.00 | 0.00 | 0.00 | 73 | 1010.1 |
| 20260506124556 | 58 | 14 | 7.8 | 15.6 | 0.00 | 0.00 | 0.00 | 72 | 1010.0 |
| 20260506124022 | 58 | 5 | 7.0 | 14.8 | 0.00 | 0.00 | 0.00 | 74 | 1010.0 |
| 20260506123528 | 57 | 284 | 7.0 | 14.8 | 0.00 | 0.00 | 0.00 | 75 | 1010.0 |
| 20260506123056 | 57 | 355 | 7.8 | 14.8 | 0.00 | 0.00 | 0.00 | 74 | 1009.9 |
| 20260506122525 | 57 | 5 | 8.7 | 14.8 | 0.00 | 0.00 | 0.00 | 75 | 1010.0 |
| 20260506122031 | 57 | 355 | 7.8 | 15.6 | 0.00 | 0.00 | 0.00 | 74 | 1010.0 |
| 20260506121540 | 57 | 317 | 6.1 | 15.6 | 0.00 | 0.00 | 0.00 | 74 | 1010.0 |
| 20260506121026 | 57 | 351 | 7.8 | 14.8 | 0.00 | 0.00 | 0.00 | 73 | 1010.0 |
| 20260506120555 | 56 | 333 | 8.7 | 14.8 | 0.00 | 0.00 | 0.00 | 73 | 1009.9 |
| 20260506120036 | 57 | 355 | 7.8 | 13.0 | 0.00 | 0.00 | 0.00 | 73 | 1009.9 |
| 20260506115524 | 56 | 48 | 7.8 | 13.0 | 0.00 | 0.00 | 0.00 | 73 | 1009.9 |
| 20260506115029 | 56 | 355 | 8.7 | 14.8 | 0.00 | 0.00 | 0.00 | 72 | 1009.8 |
| 20260506114538 | 57 | 360 | 8.7 | 14.8 | 0.00 | 0.00 | 0.00 | 72 | 1009.9 |
| 20260506114025 | 56 | 341 | 6.1 | 13.9 | 0.00 | 0.00 | 0.00 | 73 | 1009.9 |
| 20260506113533 | 56 | 333 | 7.0 | 13.9 | 0.00 | 0.00 | 0.00 | 73 | 1009.8 |
| 20260506113041 | 57 | 355 | 6.1 | 13.9 | 0.00 | 0.00 | 0.00 | 72 | 1009.9 |
| 20260506112526 | 58 | 355 | 7.8 | 13.9 | 0.00 | 0.00 | 0.00 | 70 | 1009.8 |
| 20260506112054 | 58 | 355 | 7.8 | 15.6 | 0.00 | 0.00 | 0.00 | 71 | 1009.9 |
| 20260506111521 | 58 | 11 | 8.7 | 15.6 | 0.00 | 0.00 | 0.00 | 72 | 1009.8 |
| 20260506111031 | 57 | 355 | 4.3 | 14.8 | 0.00 | 0.00 | 0.00 | 74 | 1009.8 |
| 20260506110540 | 57 | 300 | 9.6 | 17.4 | 0.00 | 0.00 | 0.00 | 73 | 1009.9 |
| 20260506110037 | 57 | 38 | 9.6 | 17.4 | 0.00 | 0.00 | 0.00 | 74 | 1009.8 |
| 20260506105527 | 57 | 346 | 5.2 | 14.8 | 0.00 | 0.00 | 0.00 | 75 | 1009.9 |
| 20260506105034 | 57 | 325 | 7.8 | 15.6 | 0.00 | 0.00 | 0.00 | 74 | 1009.9 |
| 20260506104523 | 57 | 20 | 9.6 | 15.6 | 0.00 | 0.00 | 0.00 | 74 | 1009.9 |
| 20260506104030 | 57 | 15 | 8.7 | 16.5 | 0.00 | 0.00 | 0.00 | 73 | 1009.8 |
| 20260506103559 | 58 | 332 | 8.7 | 16.5 | 0.00 | 0.00 | 0.00 | 74 | 1009.8 |
| 20260506103048 | 58 | 5 | 7.0 | 13.0 | 0.00 | 0.00 | 0.00 | 74 | 1009.8 |
| 20260506102556 | 57 | 290 | 7.8 | 16.5 | 0.00 | 0.00 | 0.00 | 74 | 1009.8 |
| 20260506102023 | 57 | 309 | 9.6 | 16.5 | 0.00 | 0.00 | 0.00 | 74 | 1009.7 |
| 20260506101527 | 57 | 285 | 7.8 | 14.8 | 0.00 | 0.00 | 0.00 | 74 | 1009.7 |
| 20260506101035 | 57 | 25 | 9.6 | 14.8 | 0.00 | 0.00 | 0.00 | 73 | 1009.7 |
| 20260506100523 | 57 | 355 | 8.7 | 14.8 | 0.00 | 0.00 | 0.00 | 72 | 1009.7 |
| 20260506100025 | 58 | 360 | 6.1 | 11.3 | 0.00 | 0.00 | 0.00 | 71 | 1009.7 |
| 20260506095549 | 58 | 28 | 6.1 | 11.3 | 0.00 | 0.00 | 0.00 | 71 | 1009.7 |
| 20260506095037 | 58 | 28 | 6.1 | 15.6 | 0.00 | 0.00 | 0.00 | 71 | 1009.7 |
| 20260506094525 | 57 | 337 | 7.0 | 15.6 | 0.00 | 0.00 | 0.00 | 72 | 1009.7 |
| 20260506094032 | 57 | 350 | 7.8 | 12.2 | 0.00 | 0.00 | 0.00 | 72 | 1009.7 |
| 20260506093540 | 57 | 321 | 6.1 | 12.2 | 0.00 | 0.00 | 0.00 | 73 | 1009.7 |
| 20260506093024 | 57 | 44 | 6.1 | 12.2 | 0.00 | 0.00 | 0.00 | 74 | 1009.7 |
| 20260506092533 | 56 | 350 | 5.2 | 13.0 | 0.00 | 0.00 | 0.00 | 76 | 1009.6 |
| 20260506092041 | 56 | 348 | 7.8 | 14.8 | 0.00 | 0.00 | 0.00 | 76 | 1009.6 |
| 20260506091529 | 56 | 325 | 7.8 | 14.8 | 0.00 | 0.00 | 0.00 | 76 | 1009.6 |
| 20260506091052 | 56 | 42 | 5.2 | 13.9 | 0.00 | 0.00 | 0.00 | 77 | 1009.6 |
| 20260506090540 | 56 | 329 | 7.8 | 13.9 | 0.00 | 0.00 | 0.00 | 75 | 1009.6 |
| 20260506090041 | 56 | 350 | 4.3 | 13.9 | 0.00 | 0.00 | 0.00 | 77 | 1009.6 |
| 20260506085549 | 56 | 11 | 7.8 | 13.9 | 0.00 | 0.00 | 0.00 | 76 | 1009.5 |
| 20260506085036 | 55 | 30 | 6.1 | 13.0 | 0.00 | 0.00 | 0.00 | 79 | 1009.5 |
| 20260506084540 | 55 | 18 | 8.7 | 16.5 | 0.00 | 0.00 | 0.00 | 77 | 1009.5 |
| 20260506084028 | 56 | 9 | 7.8 | 14.8 | 0.00 | 0.00 | 0.00 | 77 | 1009.4 |
| 20260506083537 | 56 | 344 | 8.7 | 14.8 | 0.00 | 0.00 | 0.00 | 78 | 1009.3 |
| 20260506083025 | 55 | 322 | 5.2 | 11.3 | 0.00 | 0.00 | 0.00 | 80 | 1009.3 |
| 20260506082533 | 55 | 348 | 5.2 | 13.9 | 0.00 | 0.00 | 0.00 | 81 | 1009.4 |
| 20260506082037 | 55 | 5 | 7.0 | 13.9 | 0.00 | 0.00 | 0.00 | 81 | 1009.4 |
| 20260506081525 | 55 | 32 | 7.8 | 13.0 | 0.00 | 0.00 | 0.00 | 81 | 1009.5 |
| 20260506081054 | 55 | 5 | 7.8 | 13.0 | 0.00 | 0.00 | 0.00 | 82 | 1009.4 |
| 20260506080521 | 54 | 360 | 5.2 | 13.9 | 0.00 | 0.00 | 0.00 | 83 | 1009.4 |
| 20260506073028 | 53 | 348 | 6.1 | 13.9 | 0.00 | 0.00 | 0.00 | 84 | 1009.3 |
| 20260506072537 | 53 | 327 | 7.0 | 13.0 | 0.00 | 0.00 | 0.00 | 84 | 1009.3 |
| 20260506072025 | 53 | 34 | 5.2 | 13.9 | 0.00 | 0.00 | 0.00 | 85 | 1009.2 |
| 20260506071531 | 53 | 313 | 8.7 | 13.9 | 0.00 | 0.00 | 0.00 | 85 | 1009.2 |
| 20260506071038 | 52 | 13 | 6.1 | 13.0 | 0.00 | 0.00 | 0.00 | 85 | 1009.2 |
| 20260506070528 | 52 | 13 | 7.0 | 15.6 | 0.00 | 0.00 | 0.00 | 84 | 1009.2 |
| 20260506062038 | 52 | 46 | 5.2 | 11.3 | 0.00 | 0.00 | 0.00 | 84 | 1009.0 |
| 20260506061528 | 52 | 333 | 7.0 | 13.0 | 0.00 | 0.00 | 0.00 | 84 | 1009.0 |
| 20260506061035 | 52 | 349 | 6.1 | 13.0 | 0.00 | 0.00 | 0.00 | 84 | 1009.0 |
| 20260506060525 | 52 | 13 | 4.3 | 10.4 | 0.00 | 0.00 | 0.00 | 84 | 1009.0 |
| 20260506051021 | 51 | 350 | 5.2 | 11.3 | 0.00 | 0.00 | 0.00 | 85 | 1009.0 |
| 20260506050530 | 52 | 5 | 3.5 | 10.4 | 0.00 | 0.00 | 0.00 | 84 | 1008.9 |
| 20260506045024 | 51 | 329 | 6.1 | 13.9 | 0.00 | 0.00 | 0.00 | 82 | 1009.0 |
| 20260506044532 | 51 | 9 | 5.2 | 12.2 | 0.00 | 0.00 | 0.00 | 82 | 1009.0 |
| 20260506044021 | 51 | 350 | 7.0 | 12.2 | 0.00 | 0.00 | 0.00 | 82 | 1009.0 |
| 20260506043530 | 51 | 15 | 4.3 | 10.4 | 0.00 | 0.00 | 0.00 | 82 | 1009.1 |
| 20260506043035 | 51 | 336 | 4.3 | 12.2 | 0.00 | 0.00 | 0.00 | 82 | 1009.0 |
| 20260506042524 | 51 | 355 | 6.1 | 12.2 | 0.00 | 0.00 | 0.00 | 82 | 1009.1 |
| 20260506042033 | 51 | 351 | 4.3 | 10.4 | 0.00 | 0.00 | 0.00 | 82 | 1009.1 |
| 20260506041542 | 51 | 350 | 5.2 | 10.4 | 0.00 | 0.00 | 0.00 | 82 | 1009.0 |
| 20260506041029 | 51 | 11 | 2.6 | 10.4 | 0.00 | 0.00 | 0.00 | 82 | 1009.1 |
| 20260506040534 | 51 | 329 | 6.1 | 10.4 | 0.00 | 0.00 | 0.00 | 82 | 1009.1 |
| 20260506040036 | 51 | 5 | 5.2 | 9.6 | 0.00 | 0.00 | 0.00 | 83 | 1009.1 |
| 20260506035524 | 51 | 340 | 3.5 | 9.6 | 0.00 | 0.00 | 0.00 | 82 | 1009.0 |
| 20260506035033 | 51 | 342 | 6.1 | 10.4 | 0.00 | 0.00 | 0.00 | 82 | 1009.2 |
| 20260506034522 | 51 | 355 | 4.3 | 10.4 | 0.00 | 0.00 | 0.00 | 82 | 1009.1 |
| 20260506034026 | 51 | 355 | 4.3 | 13.0 | 0.00 | 0.00 | 0.00 | 82 | 1009.2 |
| 20260506033535 | 51 | 5 | 6.1 | 13.0 | 0.00 | 0.00 | 0.00 | 82 | 1009.1 |
| 20260506033024 | 51 | 345 | 5.2 | 11.3 | 0.00 | 0.00 | 0.00 | 82 | 1009.2 |
| 20260506032533 | 51 | 5 | 5.2 | 11.3 | 0.00 | 0.00 | 0.00 | 82 | 1009.3 |
| 20260506032021 | 51 | 346 | 5.2 | 9.6 | 0.00 | 0.00 | 0.00 | 82 | 1009.3 |
| 20260506031526 | 51 | 323 | 4.3 | 9.6 | 0.00 | 0.00 | 0.00 | 82 | 1009.3 |
| 20260506031036 | 51 | 50 | 3.5 | 9.6 | 0.00 | 0.00 | 0.00 | 82 | 1009.4 |
| 20260506030544 | 51 | 64 | 4.3 | 10.4 | 0.00 | 0.00 | 0.00 | 81 | 1009.4 |
| 20260506030026 | 51 | 41 | 3.5 | 10.4 | 0.00 | 0.00 | 0.00 | 81 | 1009.5 |
| 20260506025530 | 51 | 35 | 4.3 | 9.6 | 0.00 | 0.00 | 0.00 | 80 | 1009.5 |
| 20260506025039 | 51 | 347 | 3.5 | 8.7 | 0.00 | 0.00 | 0.00 | 79 | 1009.5 |
| 20260506024548 | 51 | 17 | 3.5 | 9.6 | 0.00 | 0.00 | 0.00 | 78 | 1009.5 |
| 20260506024034 | 51 | 360 | 4.3 | 9.6 | 0.00 | 0.00 | 0.00 | 78 | 1009.5 |
| 20260506023523 | 51 | 53 | 4.3 | 12.2 | 0.00 | 0.00 | 0.00 | 78 | 1009.6 |
| 20260506023028 | 51 | 325 | 3.5 | 11.3 | 0.00 | 0.00 | 0.00 | 78 | 1009.5 |
| 20260506022536 | 50 | 336 | 5.2 | 11.3 | 0.00 | 0.00 | 0.00 | 79 | 1009.6 |
| 20260506022024 | 50 | 16 | 2.6 | 7.8 | 0.00 | 0.00 | 0.00 | 80 | 1009.7 |
| 20260506021534 | 50 | 346 | 3.5 | 7.8 | 0.00 | 0.00 | 0.00 | 81 | 1009.7 |
| 20260506021022 | 50 | 343 | 3.5 | 10.4 | 0.00 | 0.00 | 0.00 | 81 | 1009.7 |
| 20260506020527 | 50 | 5 | 4.3 | 10.4 | 0.00 | 0.00 | 0.00 | 82 | 1009.7 |
| 20260506020050 | 50 | 5 | 2.6 | 7.0 | 0.00 | 0.00 | 0.00 | 82 | 1009.8 |
| 20260506015538 | 49 | 54 | 2.6 | 7.8 | 0.00 | 0.00 | 0.00 | 82 | 1009.8 |
| 20260506015027 | 50 | 10 | 3.5 | 7.8 | 0.00 | 0.00 | 0.00 | 81 | 1009.8 |
| 20260506014531 | 49 | 19 | 3.5 | 7.8 | 0.00 | 0.00 | 0.00 | 81 | 1009.8 |
| 20260506014039 | 50 | 340 | 3.5 | 7.8 | 0.00 | 0.00 | 0.00 | 82 | 1009.8 |
| 20260506013528 | 50 | 9 | 2.6 | 7.8 | 0.00 | 0.00 | 0.00 | 81 | 1009.8 |
| 20260506013036 | 50 | 13 | 2.6 | 10.4 | 0.00 | 0.00 | 0.00 | 81 | 1009.8 |
| 20260506012525 | 50 | 9 | 3.5 | 10.4 | 0.00 | 0.00 | 0.00 | 80 | 1009.8 |
| 20260506012048 | 50 | 327 | 2.6 | 10.4 | 0.00 | 0.00 | 0.00 | 80 | 1009.8 |
| 20260506011536 | 50 | 348 | 3.5 | 9.6 | 0.00 | 0.00 | 0.00 | 80 | 1009.7 |
| 20260506011024 | 50 | 351 | 4.3 | 9.6 | 0.00 | 0.00 | 0.00 | 80 | 1009.7 |
| 20260506010533 | 50 | 5 | 2.6 | 9.6 | 0.00 | 0.00 | 0.00 | 79 | 1009.7 |
| 20260506010036 | 50 | 38 | 4.3 | 9.6 | 0.00 | 0.00 | 0.00 | 79 | 1009.8 |
| 20260506005521 | 50 | 338 | 2.6 | 7.0 | 0.00 | 0.00 | 0.00 | 79 | 1009.9 |
| 20260506005049 | 50 | 9 | 3.5 | 10.4 | 0.00 | 0.00 | 0.00 | 80 | 1009.9 |
| 20260506004537 | 50 | 26 | 5.2 | 10.4 | 0.00 | 0.00 | 0.00 | 80 | 1009.9 |
| 20260506004025 | 50 | 355 | 2.6 | 8.7 | 0.00 | 0.00 | 0.00 | 80 | 1010.0 |
| 20260506003550 | 50 | 22 | 3.5 | 8.7 | 0.00 | 0.00 | 0.00 | 79 | 1010.0 |
| 20260506003100 | 50 | 13 | 4.3 | 8.7 | 0.00 | 0.00 | 0.00 | 79 | 1010.1 |
| 20260506002529 | 50 | 9 | 3.5 | 11.3 | 0.00 | 0.00 | 0.00 | 79 | 1010.1 |
| 20260506002101 | 50 | 10 | 5.2 | 11.3 | 0.00 | 0.00 | 0.00 | 79 | 1010.2 |
| 20260506001524 | 50 | 31 | 4.3 | 8.7 | 0.00 | 0.00 | 0.00 | 80 | 1010.2 |
| 20260506001057 | 50 | 5 | 2.6 | 8.7 | 0.00 | 0.00 | 0.00 | 80 | 1010.3 |
| 20260506000526 | 50 | 17 | 3.5 | 9.6 | 0.00 | 0.00 | 0.00 | 80 | 1010.3 |
| 20260506000029 | 50 | 11 | 4.3 | 10.4 | 0.00 | 0.00 | 0.00 | 80 | 1010.4 |
| 20260505235538 | 50 | 339 | 3.5 | 11.3 | 0.00 | 0.00 | 0.00 | 79 | 1010.4 |
| 20260505235042 | 50 | 19 | 3.5 | 11.3 | 0.00 | 0.00 | 0.00 | 79 | 1010.4 |
| 20260505234530 | 49 | 360 | 2.6 | 9.6 | 0.00 | 0.00 | 0.00 | 79 | 1010.4 |
| 20260505234039 | 49 | 331 | 4.3 | 9.6 | 0.00 | 0.00 | 0.00 | 79 | 1010.5 |
| 20260505233529 | 49 | 348 | 2.6 | 8.7 | 0.00 | 0.00 | 0.00 | 79 | 1010.5 |
| 20260505233033 | 49 | 355 | 3.5 | 8.7 | 0.00 | 0.00 | 0.00 | 79 | 1010.5 |
| 20260505232522 | 49 | 345 | 4.3 | 10.4 | 0.00 | 0.00 | 0.00 | 78 | 1010.6 |
| 20260505232031 | 49 | 338 | 3.5 | 10.4 | 0.00 | 0.00 | 0.00 | 78 | 1010.6 |
| 20260505231520 | 49 | 344 | 2.6 | 7.8 | 0.00 | 0.00 | 0.00 | 78 | 1010.6 |
| 20260505231028 | 50 | 340 | 4.3 | 9.6 | 0.00 | 0.00 | 0.00 | 78 | 1010.7 |
| 20260505230533 | 50 | 44 | 2.6 | 9.6 | 0.00 | 0.00 | 0.00 | 78 | 1010.6 |
| 20260505230059 | 50 | 339 | 4.3 | 9.6 | 0.00 | 0.00 | 0.00 | 78 | 1010.7 |
| 20260505225547 | 50 | 5 | 2.6 | 12.2 | 0.00 | 0.00 | 0.00 | 78 | 1010.7 |
| 20260505225034 | 50 | 355 | 4.3 | 12.2 | 0.00 | 0.00 | 0.00 | 78 | 1010.7 |
| 20260505224523 | 50 | 24 | 2.6 | 9.6 | 0.00 | 0.00 | 0.00 | 77 | 1010.7 |
| 20260505224027 | 50 | 360 | 3.5 | 9.6 | 0.00 | 0.00 | 0.00 | 78 | 1010.7 |
| 20260505223535 | 50 | 11 | 3.5 | 8.7 | 0.00 | 0.00 | 0.00 | 77 | 1010.7 |
| 20260505223025 | 50 | 344 | 3.5 | 12.2 | 0.00 | 0.00 | 0.00 | 77 | 1010.8 |
| 20260505222533 | 50 | 339 | 2.6 | 12.2 | 0.00 | 0.00 | 0.00 | 77 | 1010.8 |
| 20260505222023 | 50 | 350 | 3.5 | 10.4 | 0.00 | 0.00 | 0.00 | 77 | 1010.8 |
| 20260505221528 | 50 | 355 | 1.7 | 10.4 | 0.00 | 0.00 | 0.00 | 77 | 1010.9 |
| 20260505221034 | 50 | 5 | 2.6 | 8.7 | 0.00 | 0.00 | 0.00 | 77 | 1010.9 |
| 20260505220524 | 50 | 5 | 2.6 | 8.7 | 0.00 | 0.00 | 0.00 | 76 | 1010.9 |
| 20260505220024 | 50 | 14 | 3.5 | 10.4 | 0.00 | 0.00 | 0.00 | 76 | 1011.0 |
| 20260505215549 | 50 | 5 | 4.3 | 10.4 | 0.00 | 0.00 | 0.00 | 76 | 1011.0 |
| 20260505215033 | 50 | 55 | 3.5 | 10.4 | 0.00 | 0.00 | 0.00 | 76 | 1011.0 |
| 20260505214521 | 50 | 32 | 5.2 | 10.4 | 0.00 | 0.00 | 0.00 | 76 | 1011.0 |
| 20260505214030 | 50 | 59 | 3.5 | 8.7 | 0.00 | 0.00 | 0.00 | 76 | 1011.1 |
| 20260505213539 | 50 | 55 | 2.6 | 8.7 | 0.00 | 0.00 | 0.00 | 76 | 1011.0 |
| 20260505213023 | 51 | 19 | 3.5 | 11.3 | 0.00 | 0.00 | 0.00 | 76 | 1011.0 |
| 20260505212532 | 51 | 9 | 4.3 | 11.3 | 0.00 | 0.00 | 0.00 | 75 | 1011.1 |
| 20260505212039 | 51 | 36 | 4.3 | 10.4 | 0.00 | 0.00 | 0.00 | 75 | 1011.1 |
| 20260505211528 | 51 | 360 | 4.3 | 10.4 | 0.00 | 0.00 | 0.00 | 75 | 1011.1 |
| 20260505211037 | 51 | 32 | 3.5 | 7.8 | 0.00 | 0.00 | 0.00 | 76 | 1011.1 |
| 20260505210522 | 51 | 360 | 2.6 | 9.6 | 0.00 | 0.00 | 0.00 | 75 | 1011.1 |
| 20260505210046 | 51 | 9 | 4.3 | 9.6 | 0.00 | 0.00 | 0.00 | 75 | 1011.2 |
| 20260505205558 | 51 | 25 | 3.5 | 8.7 | 0.00 | 0.00 | 0.00 | 75 | 1011.2 |
| 20260505205046 | 51 | 360 | 3.5 | 11.3 | 0.00 | 0.00 | 0.00 | 76 | 1011.2 |
| 20260505204551 | 51 | 14 | 2.6 | 11.3 | 0.00 | 0.00 | 0.00 | 76 | 1011.2 |
| 20260505204019 | 51 | 40 | 4.3 | 12.2 | 0.00 | 0.00 | 0.00 | 75 | 1011.2 |